Regional Weather Roundup
Issued by NWS

Home | Current Version | Previous Version | Graphics & Text | Print | Product List | Glossary On
Versions: 1 2 3 4 5 6 7 8 9 10 11 12 13 14 15 16 17 18 19 20 21 22 23 24 25 26 27 28 29 30 31 32 33 34 35 36 37 38 39 40 41 42 43 44 45 46 47 48 49 50
000
ASUS45 KCYS 240510
RWRWY

WYOMING REGIONAL WEATHER ROUNDUP
NATIONAL WEATHER SERVICE CHEYENNE WY
1100 PM MDT WED JUL 23 2014

NOTE:  "FAIR" INDICATES FEW OR NO CLOUDS BELOW 12,000 FEET
WITH NO SIGNIFICANT WEATHER AND/OR OBSTRUCTIONS TO VISIBILITY.

WYZ001-240600-
YELLOWSTONE NATIONAL PARK

CITY           SKY/WX    TMP DP  RH WIND       PRES   REMARKS
LK YELLOWSTONE   N/A     53  41  63 CALM      30.29F
W YELLOWSTONE  NOT AVBL

$$
WYZ002>013-054>058-071-098>099-240600-
NORTHERN WYOMING

CITY           SKY/WX    TMP DP  RH WIND       PRES   REMARKS
JACKSON        CLEAR     59  41  51 CALM      30.15F
CODY           NOT AVBL
GREYBULL       CLEAR     81  44  27 SE6       29.88F
WORLAND        CLEAR     80  37  21 S8        29.91F
SHERIDAN       MOCLDY    74  56  53 SE3       29.93F
BUFFALO        PTCLDY    82  53  36 W6        30.04S
GILLETTE       PTCLDY    81  59  47 S22       29.98F
HULETT         FAIR      77  63  61 MISG      30.11
NEWCASTLE      FAIR      79  59  50 SE15      30.08

$$
WYZ014>020-022>026-101>103-240600-
CENTRAL WYOMING

CITY           SKY/WX    TMP DP  RH WIND       PRES   REMARKS
BIG PINEY      PTCLDY    72  38  29 S9        30.23F
PINEDALE       PTCLDY    73  34  23 S13G20    30.26S
DUBOIS         FAIR      70  27  19 W5        30.22F
LANDER         MOCLDY    81  40  23 SW25G31   30.07F
RIVERTON       MOCLDY    81  35  19 W10       30.08S
CASPER         MOCLDY    80  40  23 S12       30.07F
DOUGLAS        PTCLDY    71  42  35 CALM      30.09S

$$
WYZ021-027>030-104>119-240600-
SOUTHERN WYOMING

CITY           SKY/WX    TMP DP  RH WIND       PRES   REMARKS
EVANSTON       PTCLDY    69  49  48 E5        30.26S
KEMMERER       MOCLDY    77  32  19 S14G29    30.29F
ROCK SPRINGS   MOCLDY    74  34  23 S6        30.23S
DIXON          FAIR      80  38  22 SW5       30.30R
RAWLINS        MOCLDY    73  28  18 SE8       30.27R
SARATOGA       FAIR      73  41  31 SE10      30.31S
LARAMIE        MOCLDY    65  44  46 SW5       30.34S
CHEYENNE       LGT RAIN  74  47  38 S14       30.22F
TORRINGTON     PTCLDY    78  59  51 E7        30.06F
PINE BLUFFS    FAIR      70  48  46 S8        30.19F

$$



USA.gov is the U.S. government's official web portal to all federal, state and local government web resources and services.